GW2624 Weather Reports


time (UTC)temp
F
wind
direction
speed
knots
gust
knots
rain 1hr
in
rain 24hr
in
rain mn
in
humidity
%
barometer
mb
20240418165906 65 317 0.9 4.3 0.00 0.00 0.00 24 1011.5
20240418164905 65 277 0.9 2.6 0.00 0.00 0.00 24 1011.5
20240418164409 65 275 1.7 2.6 0.00 0.00 0.00 23 1011.6
20240418163905 65 200 0.0 4.3 0.00 0.00 0.00 22 1011.7
20240418163407 65 325 0.9 4.3 0.00 0.00 0.00 23 1011.7
20240418162905 65 53 1.7 4.3 0.00 0.00 0.00 22 1011.9
20240418162408 65 284 0.9 4.3 0.00 0.00 0.00 22 1011.8
20240418161906 64 238 0.9 4.3 0.00 0.00 0.00 24 1011.8
20240418161405 64 171 0.9 4.3 0.00 0.00 0.00 23 1011.8
20240418160405 63 254 0.9 5.2 0.00 0.00 0.00 24 1011.8
20240418155905 63 198 1.7 4.3 0.00 0.00 0.00 23 1011.9
20240418155405 62 257 1.7 4.3 0.00 0.00 0.00 24 1011.8
20240418154930 62 227 0.9 4.3 0.00 0.00 0.00 27 1011.7
20240418153513 60 60 0.9 4.3 0.00 0.00 0.00 28 1011.7
20240418152905 59 328 0.9 2.6 0.00 0.00 0.00 28 1011.7
20240418152405 58 276 1.7 2.6 0.00 0.00 0.00 29 1011.7
20240418151905 57 299 0.9 2.6 0.00 0.00 0.00 30 1011.7
20240418151405 57 291 1.7 2.6 0.00 0.00 0.00 31 1011.6
20240418150905 56 358 0.9 2.6 0.00 0.00 0.00 30 1011.7
20240418145905 55 266 0.9 4.3 0.00 0.00 0.00 31 1011.8
20240418145406 54 31 0.9 2.6 0.00 0.00 0.00 33 1011.6
20240418144404 54 344 0.0 2.6 0.00 0.00 0.00 32 1011.4
20240418143906 54 290 0.9 2.6 0.00 0.00 0.00 32 1011.4
20240418143405 54 332 0.9 1.7 0.00 0.00 0.00 32 1011.3
20240418141905 53 319 0.9 4.3 0.00 0.00 0.00 35 1011.2
20240418140404 50 143 0.0 0.9 0.00 0.00 0.00 39 1011.2
20240418135906 49 143 0.0 0.9 0.00 0.00 0.00 40 1011.2
20240418134404 46 139 0.0 1.7 0.00 0.00 0.00 44 1011.2
20240418133905 45 139 0.0 2.6 0.00 0.00 0.00 44 1011.2
20240418133404 45 139 0.0 4.3 0.00 0.00 0.00 45 1011.3
20240418132904 44 150 1.7 4.3 0.00 0.00 0.00 45 1011.4
20240418132405 43 1 0.0 1.7 0.00 0.00 0.00 46 1011.4
20240418131904 42 148 0.0 4.3 0.00 0.00 0.00 46 1011.4
20240418131404 42 148 0.9 4.3 0.00 0.00 0.00 46 1011.3
20240418130404 42 144 1.7 2.6 0.00 0.00 0.00 45 1011.1
20240418124404 41 136 1.7 2.6 0.00 0.00 0.00 46 1011.0
20240418123904 41 155 1.7 2.6 0.00 0.00 0.00 47 1010.9
20240418123405 41 141 0.9 2.6 0.00 0.00 0.00 47 1010.8
20240418121904 41 157 1.7 2.6 0.00 0.00 0.00 46 1010.6
20240418121404 42 141 1.7 2.6 0.00 0.00 0.00 45 1010.7
20240418120904 42 142 1.7 2.6 0.00 0.00 0.00 44 1010.7
20240418120404 42 134 0.9 2.6 0.00 0.00 0.00 44 1010.7
20240418115404 42 170 1.7 2.6 0.00 0.00 0.00 43 1010.8
20240418114905 43 141 1.7 2.6 0.00 0.00 0.00 43 1010.9
20240418113904 43 139 1.7 2.6 0.00 0.00 0.00 43 1010.7
20240418112904 43 143 0.0 2.6 0.00 0.00 0.00 42 1010.7
20240418112405 43 143 1.7 2.6 0.00 0.00 0.00 42 1010.6
20240418111404 43 144 0.9 2.6 0.00 0.00 0.00 42 1010.5
20240418110905 43 141 0.9 2.6 0.00 0.00 0.00 42 1010.6
20240418105904 43 140 1.7 2.6 0.00 0.00 0.00 42 1010.4
20240418105403 43 146 0.9 2.6 0.00 0.00 0.00 42 1010.4
20240418104904 43 146 1.7 2.6 0.00 0.00 0.00 42 1010.3
20240418103904 43 190 0.0 0.9 0.00 0.00 0.00 42 1010.3
20240418103405 43 190 0.0 1.7 0.00 0.00 0.00 42 1010.2
20240418102904 43 190 0.0 1.7 0.00 0.00 0.00 42 1010.2
20240418102417 43 190 0.9 1.7 0.00 0.00 0.00 42 1010.2
20240418100904 42 193 0.9 2.6 0.00 0.00 0.00 42 1010.2
20240418095904 43 141 1.7 2.6 0.00 0.00 0.00 42 1010.2
20240418095404 44 133 0.0 1.7 0.00 0.00 0.00 40 1010.2
20240418094905 44 133 0.0 2.6 0.00 0.00 0.00 40 1010.2
20240418091906 43 142 1.7 2.6 0.00 0.00 0.00 41 1009.7
20240418091406 43 143 0.9 2.6 0.00 0.00 0.00 41 1009.6
20240418084406 44 136 0.9 2.6 0.00 0.00 0.00 40 1009.5
20240418083905 44 146 0.9 2.6 0.00 0.00 0.00 40 1009.5
20240418082905 44 138 0.9 2.6 0.00 0.00 0.00 40 1009.6
20240418082406 44 140 0.9 2.6 0.00 0.00 0.00 40 1009.6
20240418080905 43 130 0.9 2.6 0.00 0.00 0.00 40 1009.6
20240418080405 43 145 0.9 2.6 0.00 0.00 0.00 41 1009.6
20240418074905 43 130 1.7 2.6 0.00 0.00 0.00 41 1009.7
20240418073405 43 122 0.9 2.6 0.00 0.00 0.00 40 1009.8
20240418072905 43 121 0.9 2.6 0.00 0.00 0.00 41 1010.0
20240418071406 43 138 0.9 2.6 0.00 0.00 0.00 42 1010.0
20240418070905 43 123 0.9 2.6 0.00 0.00 0.00 41 1010.0
20240418065405 43 131 0.0 1.7 0.00 0.00 0.00 42 1010.1
20240418063405 43 102 0.9 4.3 0.00 0.00 0.00 41 1009.9
20240418061905 44 153 0.0 1.7 0.00 0.00 0.00 40 1009.9
20240418060906 44 153 0.0 4.3 0.00 0.00 0.00 40 1010.0
20240418060405 45 153 0.9 4.3 0.00 0.00 0.00 40 1010.0
20240418055906 45 146 0.0 1.7 0.00 0.00 0.00 39 1009.9
20240418055405 45 146 0.0 1.7 0.00 0.00 0.00 38 1009.9
20240418054905 45 146 0.0 1.7 0.00 0.00 0.00 38 1009.8
20240418053905 45 132 0.9 2.6 0.00 0.00 0.00 38 1009.8
20240418053405 45 132 0.0 2.6 0.00 0.00 0.00 37 1009.8
20240418052404 45 133 0.9 1.7 0.00 0.00 0.00 38 1009.8
20240418051904 45 133 0.9 1.7 0.00 0.00 0.00 38 1009.8
20240418050905 45 136 0.0 0.9 0.00 0.00 0.00 38 1009.7
20240418050405 45 136 0.0 1.7 0.00 0.00 0.00 38 1009.8
20240418045405 46 133 0.0 1.7 0.00 0.00 0.00 37 1009.8
20240418044405 46 150 0.0 2.6 0.00 0.00 0.00 35 1009.7
20240418043907 46 155 1.7 2.6 0.00 0.00 0.00 34 1009.7
20240418043407 46 237 0.9 1.7 0.00 0.00 0.00 36 1009.7
20240418040905 48 237 0.9 1.7 0.00 0.00 0.00 33 1009.9
20240418040406 48 237 0.0 1.7 0.00 0.00 0.00 34 1009.8
20240418035405 49 237 0.0 0.0 0.00 0.00 0.00 33 1009.7
20240418034405 50 237 0.0 0.0 0.00 0.00 0.00 32 1009.6
20240418033905 51 237 0.0 1.7 0.00 0.00 0.00 31 1009.5
20240418033405 51 237 0.0 1.7 0.00 0.00 0.00 31 1009.5
20240418032405 52 237 0.0 0.9 0.00 0.00 0.00 29 1009.5
20240418031905 53 237 0.0 1.7 0.00 0.00 0.00 30 1009.4
20240418031405 53 237 0.0 1.7 0.00 0.00 0.00 30 1009.3
20240418030905 54 238 0.0 1.7 0.00 0.00 0.00 28 1009.3
20240418030405 55 238 0.9 1.7 0.00 0.00 0.00 27 1009.2
20240418025405 57 238 0.9 1.7 0.00 0.00 0.00 25 1009.1
20240418024904 58 238 0.0 1.7 0.00 0.00 0.00 25 1008.9
20240418023905 59 238 0.0 1.7 0.00 0.00 0.00 23 1008.6
20240418022405 62 238 0.9 1.7 0.00 0.00 0.00 20 1008.3
20240418020905 64 237 0.0 2.6 0.00 0.00 0.00 19 1008.3
20240418015905 65 234 0.9 2.6 0.00 0.00 0.00 19 1008.4
20240418014907 66 210 0.9 2.6 0.00 0.00 0.00 18 1008.1
20240418014406 66 242 0.9 5.2 0.00 0.00 0.00 18 1008.1
20240418013406 67 261 1.7 8.7 0.00 0.00 0.00 17 1008.0
20240418012406 68 224 1.7 6.1 0.00 0.00 0.00 16 1007.9
20240418011905 68 215 1.7 7.8 0.00 0.00 0.00 15 1007.8
20240418010405 69 270 1.7 7.8 0.00 0.00 0.00 15 1007.8
20240418005904 70 229 1.7 7.8 0.00 0.00 0.00 15 1007.8
20240418005406 70 292 0.9 6.1 0.00 0.00 0.00 15 1007.7
20240418004405 71 205 2.6 7.8 0.00 0.00 0.00 15 1007.7
20240418003905 71 258 4.3 7.8 0.00 0.00 0.00 14 1007.8
20240418003405 71 209 2.6 10.4 0.00 0.00 0.00 14 1007.9
20240418002905 71 226 2.6 10.4 0.00 0.00 0.00 14 1007.8
20240418002404 72 212 1.7 10.4 0.00 0.00 0.00 14 1007.8
20240418001905 72 227 3.5 10.4 0.00 0.00 0.00 14 1007.9
20240418000404 72 249 4.3 12.2 0.00 0.00 0.00 14 1007.8
20240417234904 72 9 3.5 13.9 0.00 0.00 0.00 13 1007.8
20240417234405 72 265 5.2 13.9 0.00 0.00 0.00 13 1007.9
20240417232406 73 224 4.3 10.4 0.00 0.00 0.00 12 1007.8
20240417231907 73 220 4.3 10.4 0.00 0.00 0.00 13 1007.8
20240417230905 72 240 2.6 10.4 0.00 0.00 0.00 13 1007.7
20240417230405 72 277 2.6 10.4 0.00 0.00 0.00 13 1007.7
20240417225405 73 204 5.2 11.3 0.00 0.00 0.00 13 1007.7
20240417224404 72 268 4.3 12.2 0.00 0.00 0.00 14 1007.7
20240417223908 73 224 5.2 12.2 0.00 0.00 0.00 14 1007.7
20240417222405 73 222 3.5 11.3 0.00 0.00 0.00 15 1007.7
20240417221906 73 208 5.2 12.2 0.00 0.00 0.00 14 1007.8
20240417220907 73 178 4.3 10.4 0.00 0.00 0.00 15 1007.7
20240417215906 73 225 4.3 11.3 0.00 0.00 0.00 16 1007.8
20240417215405 73 241 2.6 11.3 0.00 0.00 0.00 16 1007.8
20240417214906 73 204 3.5 6.1 0.00 0.00 0.00 15 1007.9
20240417214405 72 180 1.7 14.8 0.00 0.00 0.00 17 1007.7
20240417213911 72 124 2.6 14.8 0.00 0.00 0.00 16 1008.0
20240417213447 72 227 6.1 14.8 0.00 0.00 0.00 17 1008.1
20240417211905 72 170 5.2 8.7 0.00 0.00 0.00 17 1008.3
20240417205404 71 287 2.6 10.4 0.00 0.00 0.00 18 1008.8
20240417204905 72 220 2.6 11.3 0.00 0.00 0.00 17 1008.9
20240417204404 72 193 4.3 11.3 0.00 0.00 0.00 18 1009.0
20240417203405 72 274 1.7 7.0 0.00 0.00 0.00 18 1009.1
20240417202905 72 170 2.6 7.0 0.00 0.00 0.00 18 1009.3
20240417201904 71 326 1.7 7.0 0.00 0.00 0.00 19 1009.7
20240417201405 71 226 2.6 10.4 0.00 0.00 0.00 19 1009.8
20240417200904 71 225 2.6 10.4 0.00 0.00 0.00 19 1010.0
20240417195404 68 295 1.7 8.7 0.00 0.00 0.00 20 1010.2
20240417193904 68 144 3.5 5.2 0.00 0.00 0.00 20 1010.5
20240417191405 69 340 1.7 4.3 0.00 0.00 0.00 20 1011.0
20240417190904 69 332 1.7 4.3 0.00 0.00 0.00 21 1011.0
20240417185405 68 315 1.7 5.2 0.00 0.00 0.00 21 1011.2
20240417183913 67 223 1.7 7.8 0.00 0.00 0.00 22 1011.5
20240417183408 67 175 2.6 7.0 0.00 0.00 0.00 23 1011.6
20240417181905 67 208 2.6 7.0 0.00 0.00 0.00 21 1012.0
20240417180905 67 296 1.7 7.8 0.00 0.00 0.00 24 1012.2
20240417174405 66 126 0.9 6.1 0.00 0.00 0.00 23 1012.4
20240417173905 66 304 1.7 6.1 0.00 0.00 0.00 22 1012.6
20240417172405 64 22 1.7 7.8 0.00 0.00 0.00 23 1012.6
20240417171404 64 299 1.7 6.1 0.00 0.00 0.00 24 1012.7